Weather History for LIMH - October, 2011

Change the Weather History Date:

Saturday, October 22, 2011

  Actual Average Record
Temperature  
Mean Temperature 22 °F -  
Max Temperature 24 °F 25 °F 39 °F (2012)
Min Temperature 19 °F 15 °F -2 °F (2007)
Degree Days  
Heating Degree Days 44    
Moisture  
Dew Point -21 °F    
Average Humidity 12    
Maximum Humidity 16    
Minimum Humidity 4    
Precipitation  
Precipitation 0.00 in - - ()
Sea Level Pressure  
Sea Level Pressure 30.16 in    
Wind  
Wind Speed 9 mph ()    
Max Wind Speed 17 mph    
Max Gust Speed -    
Visibility 6.0 miles    
Events      
Averages and records for this station are not official NWS values.
T = Trace of Precipitation, MM = Missing Value Source: Averaged Metar Reports

Daily Weather History Graph

Daily Weather History Graph

Search for Another Location

Airport or City:

Trip Planner

Search our weather history database for the weather conditions in past years. The results will help you decide how hot, cold, wet, or windy it might be!

Date:

Astronomy

Oct. 22, 2011 Rise Set
Actual Time 7:54 AM CEST 6:31 PM CEST
Civil Twilight 7:24 AM CEST 7:02 PM CEST
Nautical Twilight 6:49 AM CEST 7:37 PM CEST
Astronomical Twilight 6:15 AM CEST 8:11 PM CEST
Moon 2:17 AM CEST (10/22) 3:54 PM CEST (10/22)
Length of Visible Light 11h 37m
Length of Day
10h 37m
Waning Crescent, 26% of the Moon is Illuminated
Oct 22
Waning Crescent
Oct 26
New
Nov 2
First Quarter
Nov 10
Full
Nov 18
Last Quarter

Hourly Weather History & Observations

Time (CEST) Temp. Windchill Dew Point Humidity Pressure Visibility Wind Dir Wind Speed Gust Speed Precip Events Conditions
12:55 AM 21.2 °F 9.5 °F -22.0 °F 14% 30.18 in - ENE 11.5 mph - N/A   Clear
1:55 AM 21.2 °F 8.9 °F -22.0 °F 14% 30.18 in - ENE 12.7 mph - N/A   Clear
2:00 AM 20 °F - -21 °F 5%  in 6 mi ENE 12.7 mph - -   Partly Cloudy
2:55 AM 19.4 °F 9.5 °F -20.2 °F 16% 30.18 in - ESE 8.1 mph - N/A   Clear
3:55 AM 19.4 °F 9.5 °F -20.2 °F 16% 30.15 in - East 8.1 mph - N/A   Clear
4:55 AM 19.4 °F 5.5 °F -20.2 °F 16% 30.15 in - ENE 15.0 mph - N/A   Clear
5:00 AM 19 °F - -21 °F 6%  in 6 mi ENE 15.0 mph - -   Partly Cloudy
5:55 AM 19.4 °F 6.0 °F -22.0 °F 15% 30.15 in - ENE 13.8 mph - N/A   Clear
7:55 AM 19.4 °F 7.9 °F -22.0 °F 15% 30.15 in - ENE 10.4 mph - N/A   Clear
8:00 AM 19 °F - -22 °F 5%  in 31 mi ENE 10.4 mph - -   Partly Cloudy
8:55 AM 19.4 °F 7.2 °F -22.0 °F 15% 30.15 in - ENE 11.5 mph - N/A   Clear
9:55 AM 19.4 °F 8.6 °F -22.0 °F 15% 30.15 in - ENE 9.2 mph - N/A   Clear
10:55 AM 21.2 °F 13.6 °F -22.0 °F 14% 30.18 in - ENE 5.8 mph - N/A   Clear
11:00 AM 20 °F - -22 °F 5%  in 31 mi ENE 5.8 mph - -  
11:55 AM 21.2 °F - -22.0 °F 14% 30.18 in - Calm Calm - N/A   Clear
12:55 PM 23.0 °F - -20.2 °F 14% 30.18 in - Calm Calm - N/A   Clear
1:55 PM 24.8 °F - -22.0 °F 12% 30.15 in - Calm Calm - N/A   Clear
2:00 PM 24 °F - -22 °F 4%  in 44 mi Calm Calm - -  
2:55 PM 24.8 °F 15.3 °F -16.6 °F 16% 30.15 in - ENE 9.2 mph - N/A   Clear
3:55 PM 23.0 °F 13.9 °F -18.4 °F 15% 30.15 in - NE 8.1 mph - N/A   Clear
5:55 PM 23.0 °F 15.8 °F -20.2 °F 14% 30.15 in - ENE 5.8 mph - N/A   Clear
6:55 PM 23.0 °F 13.1 °F -22.0 °F 13% 30.15 in - ENE 9.2 mph - N/A   Clear
7:55 PM 23.0 °F 13.1 °F -22.0 °F 13% 30.15 in - ENE 9.2 mph - N/A   Clear
8:55 PM 23.0 °F 10.1 °F -22.0 °F 13% 30.15 in - ENE 15.0 mph - N/A   Clear
10:55 PM 23.0 °F 10.1 °F -22.0 °F 13% 30.15 in - ENE 15.0 mph - N/A   Clear
11:00 PM 23 °F - -22 °F 4%  in 6 mi ENE 15.0 mph - -  
11:55 PM 23.0 °F 9.2 °F -22.0 °F 13% 30.15 in - ENE 17.3 mph - N/A   Clear